Time,TemperatureF,DewpointF,PressureIn,WindDirection,WindDirectionDegrees,WindSpeedMPH,WindSpeedGustMPH,Humidity,HourlyPrecipIn,Conditions,Clouds,dailyrainin,SoftwareType,DateUTC
2013-03-27 00:00:00,38.1,27.4,30.14,North,350,0.0,0.0,65,0.00,,,0.00,Wunderground v.1.15,2013-03-27 04:00:00,
2013-03-27 00:05:00,37.9,27.5,30.14,WNW,294,0.0,0.0,66,0.00,,,0.00,Wunderground v.1.15,2013-03-27 04:05:00,
2013-03-27 00:10:00,37.7,27.4,30.15,WNW,294,0.0,0.0,66,0.00,,,0.00,Wunderground v.1.15,2013-03-27 04:10:00,
2013-03-27 00:15:00,37.6,26.9,30.15,NW,321,0.0,0.0,65,0.00,,,0.00,Wunderground v.1.15,2013-03-27 04:15:00,
2013-03-27 00:20:00,37.4,27.4,30.15,WSW,245,0.0,0.0,67,0.00,,,0.00,Wunderground v.1.15,2013-03-27 04:20:00,
2013-03-27 00:25:00,37.2,27.2,30.15,WSW,245,0.0,0.0,67,0.00,,,0.00,Wunderground v.1.15,2013-03-27 04:25:00,
2013-03-27 00:30:00,36.9,27.0,30.15,SW,235,0.0,0.0,67,0.00,,,0.00,Wunderground v.1.15,2013-03-27 04:30:00,
2013-03-27 00:35:00,36.8,26.9,30.15,SW,235,0.0,0.0,67,0.00,,,0.00,Wunderground v.1.15,2013-03-27 04:35:00,
2013-03-27 00:40:00,36.6,26.7,30.15,SW,235,0.0,0.0,67,0.00,,,0.00,Wunderground v.1.15,2013-03-27 04:40:00,
2013-03-27 00:50:00,36.5,27.3,30.15,SW,225,0.0,0.0,69,0.00,,,0.00,Wunderground v.1.15,2013-03-27 04:50:00,
2013-03-27 00:55:00,36.3,27.1,30.15,SW,225,0.0,0.0,69,0.00,,,0.00,Wunderground v.1.15,2013-03-27 04:55:00,
2013-03-27 01:00:00,36.1,26.9,30.15,SW,216,0.0,0.0,69,0.00,,,0.00,Wunderground v.1.15,2013-03-27 05:00:00,
2013-03-27 01:10:00,36.0,27.2,30.15,West,261,0.0,0.0,70,0.00,,,0.00,Wunderground v.1.15,2013-03-27 05:10:00,
2013-03-27 01:15:00,36.0,27.2,30.15,West,262,0.0,0.0,70,0.00,,,0.00,Wunderground v.1.15,2013-03-27 05:15:00,
2013-03-27 01:20:00,36.0,27.2,30.15,WSW,242,0.0,0.0,70,0.00,,,0.00,Wunderground v.1.15,2013-03-27 05:20:00,
2013-03-27 01:25:00,36.0,27.2,30.15,WSW,257,0.0,0.0,70,0.00,,,0.00,Wunderground v.1.15,2013-03-27 05:25:00,
2013-03-27 01:30:00,36.0,27.2,30.15,WSW,249,0.0,0.0,70,0.00,,,0.00,Wunderground v.1.15,2013-03-27 05:30:00,
2013-03-27 01:35:00,36.2,27.4,30.15,SW,217,0.0,0.0,70,0.00,,,0.00,Wunderground v.1.15,2013-03-27 05:35:00,
2013-03-27 01:40:00,36.2,27.4,30.15,SW,217,0.0,0.0,70,0.00,,,0.00,Wunderground v.1.15,2013-03-27 05:40:00,
2013-03-27 01:45:00,36.1,27.3,30.15,WSW,244,0.0,0.0,70,0.00,,,0.00,Wunderground v.1.15,2013-03-27 05:45:00,
2013-03-27 01:50:00,35.9,27.1,30.15,WNW,290,0.0,0.0,70,0.00,,,0.00,Wunderground v.1.15,2013-03-27 05:50:00,
2013-03-27 01:55:00,35.8,27.3,30.15,WNW,286,0.0,0.0,71,0.00,,,0.00,Wunderground v.1.15,2013-03-27 05:55:00,
2013-03-27 02:00:00,35.8,27.3,30.15,West,275,0.0,1.0,71,0.00,,,0.00,Wunderground v.1.15,2013-03-27 06:00:00,
2013-03-27 02:05:00,35.7,27.2,30.15,West,275,0.0,1.0,71,0.00,,,0.00,Wunderground v.1.15,2013-03-27 06:05:00,
2013-03-27 02:10:00,35.4,27.3,30.15,WSW,254,0.0,2.0,72,0.00,,,0.00,Wunderground v.1.15,2013-03-27 06:10:00,
2013-03-27 02:15:00,35.3,27.5,30.15,WSW,254,0.0,2.0,73,0.00,,,0.00,Wunderground v.1.15,2013-03-27 06:15:00,
2013-03-27 02:20:00,35.1,27.3,30.15,WSW,254,0.0,0.0,73,0.00,,,0.00,Wunderground v.1.15,2013-03-27 06:20:00,
2013-03-27 02:30:00,34.5,27.1,30.15,WSW,254,0.0,0.0,74,0.00,,,0.00,Wunderground v.1.15,2013-03-27 06:30:00,
2013-03-27 02:35:00,34.3,27.2,30.14,WSW,254,0.0,0.0,75,0.00,,,0.00,Wunderground v.1.15,2013-03-27 06:35:00,
2013-03-27 02:40:00,34.1,27.0,30.14,WNW,288,0.0,0.0,75,0.00,,,0.00,Wunderground v.1.15,2013-03-27 06:40:00,
2013-03-27 02:45:00,34.1,27.0,30.14,NW,312,0.0,0.0,75,0.00,,,0.00,Wunderground v.1.15,2013-03-27 06:45:00,
2013-03-27 02:50:00,34.1,27.0,30.15,NW,312,0.0,0.0,75,0.00,,,0.00,Wunderground v.1.15,2013-03-27 06:50:00,
2013-03-27 02:55:00,34.2,27.1,30.15,SSW,210,0.0,0.0,75,0.00,,,0.00,Wunderground v.1.15,2013-03-27 06:55:00,
2013-03-27 03:00:00,34.2,27.4,30.14,SSW,210,0.0,0.0,76,0.00,,,0.00,Wunderground v.1.15,2013-03-27 07:00:00,
2013-03-27 03:05:00,33.9,27.1,30.14,SW,229,0.0,0.0,76,0.00,,,0.00,Wunderground v.1.15,2013-03-27 07:05:00,
2013-03-27 03:10:00,33.5,26.7,30.14,SW,229,0.0,0.0,76,0.00,,,0.00,Wunderground v.1.15,2013-03-27 07:10:00,
2013-03-27 03:15:00,33.4,26.6,30.15,SW,229,0.0,0.0,76,0.00,,,0.00,Wunderground v.1.15,2013-03-27 07:15:00,
2013-03-27 03:20:00,33.4,26.6,30.15,SW,228,0.0,0.0,76,0.00,,,0.00,Wunderground v.1.15,2013-03-27 07:20:00,
2013-03-27 03:25:00,33.4,27.0,30.15,WSW,238,0.0,0.0,77,0.00,,,0.00,Wunderground v.1.15,2013-03-27 07:25:00,
2013-03-27 03:30:00,33.3,26.9,30.15,WSW,238,0.0,0.0,77,0.00,,,0.00,Wunderground v.1.15,2013-03-27 07:30:00,
2013-03-27 03:35:00,33.2,26.8,30.15,WSW,238,0.0,0.0,77,0.00,,,0.00,Wunderground v.1.15,2013-03-27 07:35:00,
2013-03-27 03:40:00,33.0,26.6,30.15,WSW,238,0.0,0.0,77,0.00,,,0.00,Wunderground v.1.15,2013-03-27 07:40:00,
2013-03-27 03:45:00,32.8,26.7,30.15,WSW,238,0.0,0.0,78,0.00,,,0.00,Wunderground v.1.15,2013-03-27 07:45:00,
2013-03-27 03:50:00,32.8,26.7,30.15,WSW,238,0.0,0.0,78,0.00,,,0.00,Wunderground v.1.15,2013-03-27 07:50:00,
2013-03-27 03:55:00,32.7,26.9,30.15,SW,236,0.0,0.0,79,0.00,,,0.00,Wunderground v.1.15,2013-03-27 07:55:00,
2013-03-27 04:00:00,32.8,26.7,30.15,SSW,212,0.0,0.0,78,0.00,,,0.00,Wunderground v.1.15,2013-03-27 08:00:00,
2013-03-27 04:10:00,32.7,26.9,30.15,SW,221,0.0,0.0,79,0.00,,,0.00,Wunderground v.1.15,2013-03-27 08:10:00,
2013-03-27 04:15:00,32.5,26.7,30.15,SW,221,0.0,0.0,79,0.00,,,0.00,Wunderground v.1.15,2013-03-27 08:15:00,
2013-03-27 04:20:00,32.4,26.6,30.15,SW,221,0.0,0.0,79,0.00,,,0.00,Wunderground v.1.15,2013-03-27 08:20:00,
2013-03-27 04:25:00,32.4,26.6,30.15,SSW,211,0.0,0.0,79,0.00,,,0.00,Wunderground v.1.15,2013-03-27 08:25:00,
2013-03-27 04:30:00,32.3,26.8,30.15,SW,229,0.0,0.0,80,0.00,,,0.00,Wunderground v.1.15,2013-03-27 08:30:00,
2013-03-27 04:35:00,32.2,26.7,30.15,SW,229,0.0,0.0,80,0.00,,,0.00,Wunderground v.1.15,2013-03-27 08:35:00,
2013-03-27 04:40:00,32.2,26.7,30.15,WSW,238,0.0,0.0,80,0.00,,,0.00,Wunderground v.1.15,2013-03-27 08:40:00,
2013-03-27 04:45:00,32.2,26.7,30.15,SSE,164,0.0,0.0,80,0.00,,,0.00,Wunderground v.1.15,2013-03-27 08:45:00,
2013-03-27 04:50:00,32.2,26.7,30.15,SE,145,0.0,0.0,80,0.00,,,0.00,Wunderground v.1.15,2013-03-27 08:50:00,
2013-03-27 04:55:00,32.3,26.8,30.15,SE,146,0.0,0.0,80,0.00,,,0.00,Wunderground v.1.15,2013-03-27 08:55:00,
2013-03-27 05:00:00,32.3,26.8,30.15,SSE,148,0.0,0.0,80,0.00,,,0.00,Wunderground v.1.15,2013-03-27 09:00:00,
2013-03-27 05:05:00,32.2,26.7,30.16,SSE,157,0.0,0.0,80,0.00,,,0.00,Wunderground v.1.15,2013-03-27 09:05:00,
2013-03-27 05:10:00,32.3,26.8,30.16,SW,224,0.0,0.0,80,0.00,,,0.00,Wunderground v.1.15,2013-03-27 09:10:00,
2013-03-27 05:15:00,32.2,26.7,30.16,SW,224,0.0,0.0,80,0.00,,,0.00,Wunderground v.1.15,2013-03-27 09:15:00,
2013-03-27 05:20:00,32.2,26.7,30.16,SW,222,0.0,0.0,80,0.00,,,0.00,Wunderground v.1.15,2013-03-27 09:20:00,
2013-03-27 05:30:00,32.0,26.5,30.16,SW,234,0.0,0.0,80,0.00,,,0.00,Wunderground v.1.15,2013-03-27 09:30:00,
2013-03-27 05:40:00,31.9,26.4,30.16,SW,233,0.0,0.0,80,0.00,,,0.00,Wunderground v.1.15,2013-03-27 09:40:00,
2013-03-27 05:45:00,31.9,26.7,30.16,SW,233,0.0,0.0,81,0.00,,,0.00,Wunderground v.1.15,2013-03-27 09:45:00,
2013-03-27 05:50:00,31.7,26.2,30.16,WSW,238,0.0,0.0,80,0.00,,,0.00,Wunderground v.1.15,2013-03-27 09:50:00,
2013-03-27 06:00:00,31.7,26.2,30.17,SW,235,0.0,0.0,80,0.00,,,0.00,Wunderground v.1.15,2013-03-27 10:00:00,
2013-03-27 06:05:00,31.6,26.1,30.17,SW,235,0.0,0.0,80,0.00,,,0.00,Wunderground v.1.15,2013-03-27 10:05:00,
2013-03-27 06:10:00,31.6,26.4,30.17,SW,235,0.0,0.0,81,0.00,,,0.00,Wunderground v.1.15,2013-03-27 10:10:00,
2013-03-27 06:15:00,31.6,26.1,30.17,SW,235,0.0,0.0,80,0.00,,,0.00,Wunderground v.1.15,2013-03-27 10:15:00,
2013-03-27 06:20:00,31.6,26.1,30.17,SW,235,0.0,0.0,80,0.00,,,0.00,Wunderground v.1.15,2013-03-27 10:20:00,
2013-03-27 06:25:00,31.5,26.0,30.17,South,191,0.0,0.0,80,0.00,,,0.00,Wunderground v.1.15,2013-03-27 10:25:00,
2013-03-27 06:30:00,31.5,26.3,30.17,South,191,0.0,0.0,81,0.00,,,0.00,Wunderground v.1.15,2013-03-27 10:30:00,
2013-03-27 06:40:00,31.5,26.3,30.18,WSW,242,0.0,0.0,81,0.00,,,0.00,Wunderground v.1.15,2013-03-27 10:40:00,
2013-03-27 06:45:00,31.5,26.3,30.18,WSW,242,0.0,0.0,81,0.00,,,0.00,Wunderground v.1.15,2013-03-27 10:45:00,
2013-03-27 06:50:00,31.4,26.2,30.18,WSW,242,0.0,0.0,81,0.00,,,0.00,Wunderground v.1.15,2013-03-27 10:50:00,
2013-03-27 06:55:00,31.4,26.2,30.18,WSW,242,0.0,0.0,81,0.00,,,0.00,Wunderground v.1.15,2013-03-27 10:55:00,
2013-03-27 07:00:00,31.4,26.2,30.19,WSW,240,0.0,0.0,81,0.00,,,0.00,Wunderground v.1.15,2013-03-27 11:00:00,
2013-03-27 07:05:00,31.4,26.2,30.19,SW,224,0.0,0.0,81,0.00,,,0.00,Wunderground v.1.15,2013-03-27 11:05:00,
2013-03-27 07:10:00,31.4,26.2,30.19,SW,224,0.0,0.0,81,0.00,,,0.00,Wunderground v.1.15,2013-03-27 11:10:00,
2013-03-27 07:15:00,31.4,26.2,30.19,SW,229,0.0,0.0,81,0.00,,,0.00,Wunderground v.1.15,2013-03-27 11:15:00,
2013-03-27 07:20:00,31.4,26.2,30.19,SW,229,0.0,0.0,81,0.00,,,0.00,Wunderground v.1.15,2013-03-27 11:20:00,
2013-03-27 07:25:00,31.4,26.2,30.19,SW,229,0.0,0.0,81,0.00,,,0.00,Wunderground v.1.15,2013-03-27 11:25:00,
2013-03-27 07:30:00,31.6,26.4,30.20,SW,229,0.0,0.0,81,0.00,,,0.00,Wunderground v.1.15,2013-03-27 11:30:00,
2013-03-27 07:40:00,32.0,26.5,30.20,SW,222,0.0,0.0,80,0.00,,,0.00,Wunderground v.1.15,2013-03-27 11:40:00,
2013-03-27 07:50:00,32.4,26.6,30.20,SW,230,0.0,0.0,79,0.00,,,0.00,Wunderground v.1.15,2013-03-27 11:50:00,
2013-03-27 07:55:00,32.8,27.0,30.20,SW,225,0.0,0.0,79,0.00,,,0.00,Wunderground v.1.15,2013-03-27 11:55:00,
2013-03-27 08:00:00,33.1,27.0,30.20,SW,234,0.0,0.0,78,0.00,,,0.00,Wunderground v.1.15,2013-03-27 12:00:00,
2013-03-27 08:05:00,33.4,27.3,30.20,SW,225,0.0,0.0,78,0.00,,,0.00,Wunderground v.1.15,2013-03-27 12:05:00,
2013-03-27 08:10:00,33.8,27.7,30.21,WSW,242,0.0,0.0,78,0.00,,,0.00,Wunderground v.1.15,2013-03-27 12:10:00,
2013-03-27 08:15:00,34.3,27.8,30.21,WSW,240,0.0,2.0,77,0.00,,,0.00,Wunderground v.1.15,2013-03-27 12:15:00,
2013-03-27 08:20:00,34.8,28.3,30.21,WSW,240,0.0,0.0,77,0.00,,,0.00,Wunderground v.1.15,2013-03-27 12:20:00,
2013-03-27 08:25:00,35.3,28.2,30.21,West,270,0.0,0.0,75,0.00,,,0.00,Wunderground v.1.15,2013-03-27 12:25:00,
2013-03-27 08:30:00,35.7,28.2,30.21,West,269,1.0,1.0,74,0.00,,,0.00,Wunderground v.1.15,2013-03-27 12:30:00,
2013-03-27 08:35:00,36.0,28.2,30.22,West,278,1.0,1.0,73,0.00,,,0.00,Wunderground v.1.15,2013-03-27 12:35:00,
2013-03-27 08:40:00,36.4,28.2,30.22,SSW,201,1.0,1.0,72,0.00,,,0.00,Wunderground v.1.15,2013-03-27 12:40:00,
2013-03-27 08:45:00,36.7,27.8,30.22,WSW,247,1.0,1.0,70,0.00,,,0.01,Wunderground v.1.15,2013-03-27 12:45:00,
2013-03-27 08:50:00,37.0,28.1,30.22,WSW,246,1.0,1.0,70,0.00,,,0.01,Wunderground v.1.15,2013-03-27 12:50:00,
2013-03-27 08:55:00,37.4,28.5,30.22,West,265,1.0,1.0,70,0.00,,,0.01,Wunderground v.1.15,2013-03-27 12:55:00,
2013-03-27 09:00:00,37.7,28.1,30.22,SW,231,1.0,4.0,68,0.00,,,0.01,Wunderground v.1.15,2013-03-27 13:00:00,
2013-03-27 09:05:00,37.9,27.2,30.22,WNW,288,3.0,4.0,65,0.00,,,0.01,Wunderground v.1.15,2013-03-27 13:05:00,
2013-03-27 09:10:00,38.3,27.9,30.22,WSW,242,2.0,2.0,66,0.00,,,0.01,Wunderground v.1.15,2013-03-27 13:10:00,
2013-03-27 09:15:00,38.6,27.8,30.22,NNW,329,2.0,2.0,65,0.00,,,0.01,Wunderground v.1.15,2013-03-27 13:15:00,
2013-03-27 09:20:00,38.9,28.1,30.22,West,263,1.0,1.0,65,0.00,,,0.01,Wunderground v.1.15,2013-03-27 13:20:00,
2013-03-27 09:25:00,39.2,27.7,30.23,West,274,1.0,1.0,63,0.00,,,0.01,Wunderground v.1.15,2013-03-27 13:25:00,
2013-03-27 09:30:00,39.5,27.5,30.23,WNW,300,1.0,4.0,62,0.00,,,0.01,Wunderground v.1.15,2013-03-27 13:30:00,
2013-03-27 09:35:00,39.7,27.7,30.22,WSW,257,2.0,4.0,62,0.00,,,0.01,Wunderground v.1.15,2013-03-27 13:35:00,
2013-03-27 09:40:00,39.9,26.7,30.23,WNW,302,2.0,2.0,59,0.00,,,0.01,Wunderground v.1.15,2013-03-27 13:40:00,
2013-03-27 09:45:00,40.2,26.6,30.22,WNW,298,3.0,3.0,58,0.00,,,0.01,Wunderground v.1.15,2013-03-27 13:45:00,
2013-03-27 09:50:00,40.5,26.4,30.22,WNW,286,3.0,3.0,57,0.00,,,0.01,Wunderground v.1.15,2013-03-27 13:50:00,
2013-03-27 09:55:00,40.8,26.7,30.22,West,277,3.0,3.0,57,0.00,,,0.01,Wunderground v.1.15,2013-03-27 13:55:00,
2013-03-27 10:00:00,41.3,26.8,30.22,WSW,241,2.0,2.0,56,0.00,,,0.01,Wunderground v.1.15,2013-03-27 14:00:00,
2013-03-27 10:05:00,41.8,27.7,30.22,WNW,299,2.0,2.0,57,0.00,,,0.01,Wunderground v.1.15,2013-03-27 14:05:00,
2013-03-27 10:10:00,42.3,26.4,30.22,West,281,2.0,2.0,53,0.00,,,0.01,Wunderground v.1.15,2013-03-27 14:10:00,
2013-03-27 10:15:00,42.6,26.6,30.22,WNW,284,2.0,5.0,53,0.00,,,0.01,Wunderground v.1.15,2013-03-27 14:15:00,
2013-03-27 10:20:00,43.0,26.1,30.22,NW,309,2.0,5.0,51,0.00,,,0.01,Wunderground v.1.15,2013-03-27 14:20:00,
2013-03-27 10:25:00,43.2,26.3,30.22,WSW,254,3.0,5.0,51,0.00,,,0.01,Wunderground v.1.15,2013-03-27 14:25:00,
2013-03-27 10:30:00,43.5,26.1,30.22,WNW,288,3.0,6.0,50,0.00,,,0.01,Wunderground v.1.15,2013-03-27 14:30:00,
2013-03-27 10:35:00,43.6,25.7,30.22,WNW,287,3.0,6.0,49,0.00,,,0.01,Wunderground v.1.15,2013-03-27 14:35:00,
2013-03-27 10:40:00,43.8,25.4,30.22,WNW,290,4.0,4.0,48,0.00,,,0.01,Wunderground v.1.15,2013-03-27 14:40:00,
2013-03-27 10:45:00,43.8,25.4,30.22,WSW,248,3.0,4.0,48,0.00,,,0.01,Wunderground v.1.15,2013-03-27 14:45:00,
2013-03-27 10:50:00,44.0,25.5,30.22,West,265,3.0,4.0,48,0.00,,,0.01,Wunderground v.1.15,2013-03-27 14:50:00,
2013-03-27 11:00:00,44.1,25.1,30.22,North,360,4.0,4.0,47,0.00,,,0.01,Wunderground v.1.15,2013-03-27 15:00:00,
2013-03-27 11:05:00,44.5,25.5,30.22,West,260,4.0,4.0,47,0.00,,,0.01,Wunderground v.1.15,2013-03-27 15:05:00,
2013-03-27 11:10:00,45.2,25.6,30.22,ENE,67,3.0,6.0,46,0.00,,,0.01,Wunderground v.1.15,2013-03-27 15:10:00,
2013-03-27 11:15:00,45.3,25.7,30.22,WSW,240,3.0,6.0,46,0.00,,,0.01,Wunderground v.1.15,2013-03-27 15:15:00,
2013-03-27 11:20:00,45.2,24.6,30.22,West,263,4.0,4.0,44,0.00,,,0.01,Wunderground v.1.15,2013-03-27 15:20:00,
2013-03-27 11:25:00,45.2,25.6,30.22,WNW,284,4.0,5.0,46,0.00,,,0.01,Wunderground v.1.15,2013-03-27 15:25:00,
2013-03-27 11:30:00,45.2,24.6,30.22,West,263,4.0,6.0,44,0.00,,,0.01,Wunderground v.1.15,2013-03-27 15:30:00,
2013-03-27 11:35:00,45.0,24.9,30.22,WNW,294,5.0,6.0,45,0.00,,,0.01,Wunderground v.1.15,2013-03-27 15:35:00,
2013-03-27 11:40:00,45.2,25.1,30.22,NW,304,4.0,4.0,45,0.00,,,0.01,Wunderground v.1.15,2013-03-27 15:40:00,
2013-03-27 11:45:00,45.6,25.5,30.21,NW,317,3.0,9.0,45,0.00,,,0.01,Wunderground v.1.15,2013-03-27 15:45:00,
2013-03-27 11:50:00,46.0,24.7,30.22,West,272,3.0,3.0,43,0.00,,,0.01,Wunderground v.1.15,2013-03-27 15:50:00,
2013-03-27 11:55:00,46.2,26.0,30.21,SW,236,3.0,3.0,45,0.00,,,0.01,Wunderground v.1.15,2013-03-27 15:55:00,
2013-03-27 12:00:00,46.8,26.0,30.21,South,175,2.0,16.0,44,0.00,,,0.01,Wunderground v.1.15,2013-03-27 16:00:00,
2013-03-27 12:05:00,47.0,25.1,30.22,WNW,284,3.0,16.0,42,0.00,,,0.01,Wunderground v.1.15,2013-03-27 16:05:00,
2013-03-27 12:10:00,46.7,24.8,30.22,WNW,294,4.0,4.0,42,0.00,,,0.01,Wunderground v.1.15,2013-03-27 16:10:00,
2013-03-27 12:15:00,46.5,25.2,30.21,SW,236,4.0,4.0,43,0.00,,,0.01,Wunderground v.1.15,2013-03-27 16:15:00,
2013-03-27 12:20:00,46.9,25.0,30.21,NW,314,4.0,4.0,42,0.00,,,0.01,Wunderground v.1.15,2013-03-27 16:20:00,
2013-03-27 12:25:00,46.9,24.4,30.21,WNW,291,4.0,4.0,41,0.00,,,0.01,Wunderground v.1.15,2013-03-27 16:25:00,
2013-03-27 12:30:00,47.1,24.6,30.21,WNW,288,4.0,4.0,41,0.00,,,0.01,Wunderground v.1.15,2013-03-27 16:30:00,
2013-03-27 12:35:00,46.9,23.8,30.21,WNW,294,3.0,4.0,40,0.00,,,0.01,Wunderground v.1.15,2013-03-27 16:35:00,
2013-03-27 12:40:00,47.2,24.1,30.21,SW,226,3.0,3.0,40,0.00,,,0.01,Wunderground v.1.15,2013-03-27 16:40:00,
2013-03-27 12:45:00,47.4,23.7,30.21,SW,234,3.0,9.0,39,0.00,,,0.01,Wunderground v.1.15,2013-03-27 16:45:00,
2013-03-27 12:50:00,47.4,24.9,30.21,West,274,3.0,3.0,41,0.00,,,0.01,Wunderground v.1.15,2013-03-27 16:50:00,
2013-03-27 12:55:00,47.4,24.3,30.21,NNW,331,3.0,4.0,40,0.00,,,0.01,Wunderground v.1.15,2013-03-27 16:55:00,
2013-03-27 13:00:00,47.5,24.3,30.21,West,281,3.0,3.0,40,0.00,,,0.01,Wunderground v.1.15,2013-03-27 17:00:00,
2013-03-27 13:05:00,47.6,25.0,30.21,West,259,4.0,4.0,41,0.00,,,0.01,Wunderground v.1.15,2013-03-27 17:05:00,
2013-03-27 13:10:00,47.8,24.0,30.21,WNW,288,4.0,4.0,39,0.00,,,0.01,Wunderground v.1.15,2013-03-27 17:10:00,
2013-03-27 13:15:00,48.0,23.6,30.20,West,261,3.0,7.0,38,0.00,,,0.01,Wunderground v.1.15,2013-03-27 17:15:00,
2013-03-27 13:20:00,47.8,24.0,30.21,WNW,298,3.0,3.0,39,0.00,,,0.01,Wunderground v.1.15,2013-03-27 17:20:00,
2013-03-27 13:25:00,48.2,24.4,30.21,West,270,2.0,6.0,39,0.00,,,0.01,Wunderground v.1.15,2013-03-27 17:25:00,
2013-03-27 13:30:00,47.7,22.0,30.20,WNW,295,4.0,5.0,36,0.00,,,0.01,Wunderground v.1.15,2013-03-27 17:30:00,
2013-03-27 13:35:00,47.7,24.5,30.20,WSW,244,4.0,5.0,40,0.00,,,0.01,Wunderground v.1.15,2013-03-27 17:35:00,
2013-03-27 13:40:00,48.1,22.4,30.20,SSW,209,3.0,3.0,36,0.00,,,0.01,Wunderground v.1.15,2013-03-27 17:40:00,
2013-03-27 13:45:00,47.8,23.4,30.20,WNW,294,3.0,3.0,38,0.00,,,0.01,Wunderground v.1.15,2013-03-27 17:45:00,
2013-03-27 13:50:00,48.3,23.2,30.20,West,264,3.0,3.0,37,0.00,,,0.01,Wunderground v.1.15,2013-03-27 17:50:00,
2013-03-27 13:55:00,48.9,24.4,30.20,West,261,3.0,4.0,38,0.00,,,0.01,Wunderground v.1.15,2013-03-27 17:55:00,
2013-03-27 14:00:00,49.2,24.0,30.19,WNW,290,3.0,3.0,37,0.00,,,0.01,Wunderground v.1.15,2013-03-27 18:00:00,
2013-03-27 14:05:00,49.4,24.2,30.20,West,267,3.0,3.0,37,0.00,,,0.01,Wunderground v.1.15,2013-03-27 18:05:00,
2013-03-27 14:10:00,49.0,23.2,30.19,WNW,300,3.0,7.0,36,0.00,,,0.01,Wunderground v.1.15,2013-03-27 18:10:00,
2013-03-27 14:20:00,49.0,23.2,30.19,WNW,290,3.0,6.0,36,0.00,,,0.01,Wunderground v.1.15,2013-03-27 18:20:00,
2013-03-27 14:25:00,48.7,23.6,30.19,West,279,3.0,6.0,37,0.00,,,0.01,Wunderground v.1.15,2013-03-27 18:25:00,
2013-03-27 14:30:00,48.7,23.6,30.19,WNW,298,3.0,4.0,37,0.00,,,0.01,Wunderground v.1.15,2013-03-27 18:30:00,
2013-03-27 14:35:00,48.7,22.9,30.19,West,259,4.0,4.0,36,0.00,,,0.01,Wunderground v.1.15,2013-03-27 18:35:00,
2013-03-27 14:40:00,48.8,22.3,30.19,SSE,165,4.0,5.0,35,0.00,,,0.01,Wunderground v.1.15,2013-03-27 18:40:00,
2013-03-27 14:45:00,48.6,22.1,30.18,WSW,246,3.0,5.0,35,0.00,,,0.01,Wunderground v.1.15,2013-03-27 18:45:00,
2013-03-27 14:50:00,49.1,22.6,30.18,NNE,28,4.0,6.0,35,0.00,,,0.01,Wunderground v.1.15,2013-03-27 18:50:00,
2013-03-27 14:55:00,48.9,21.7,30.18,West,275,4.0,6.0,34,0.00,,,0.01,Wunderground v.1.15,2013-03-27 18:55:00,
2013-03-27 15:00:00,48.5,22.1,30.18,WNW,286,4.0,4.0,35,0.00,,,0.01,Wunderground v.1.15,2013-03-27 19:00:00,
2013-03-27 15:05:00,48.7,23.6,30.18,NW,315,4.0,4.0,37,0.00,,,0.01,Wunderground v.1.15,2013-03-27 19:05:00,
2013-03-27 15:10:00,49.0,22.5,30.18,West,268,4.0,7.0,35,0.00,,,0.01,Wunderground v.1.15,2013-03-27 19:10:00,
2013-03-27 15:15:00,49.0,23.2,30.18,West,273,4.0,7.0,36,0.00,,,0.01,Wunderground v.1.15,2013-03-27 19:15:00,
2013-03-27 15:20:00,49.5,23.6,30.18,NW,326,4.0,10.0,36,0.00,,,0.01,Wunderground v.1.15,2013-03-27 19:20:00,
2013-03-27 15:25:00,49.6,21.6,30.18,NW,319,4.0,10.0,33,0.00,,,0.01,Wunderground v.1.15,2013-03-27 19:25:00,
2013-03-27 15:30:00,49.2,22.7,30.18,SW,235,5.0,5.0,35,0.00,,,0.01,Wunderground v.1.15,2013-03-27 19:30:00,
2013-03-27 15:35:00,49.2,22.7,30.18,WNW,300,4.0,7.0,35,0.00,,,0.01,Wunderground v.1.15,2013-03-27 19:35:00,
2013-03-27 15:40:00,49.2,22.7,30.17,WNW,297,4.0,11.0,35,0.00,,,0.01,Wunderground v.1.15,2013-03-27 19:40:00,
2013-03-27 15:45:00,48.8,23.0,30.18,WSW,243,5.0,11.0,36,0.00,,,0.01,Wunderground v.1.15,2013-03-27 19:45:00,
2013-03-27 15:50:00,49.2,23.4,30.18,WSW,254,5.0,5.0,36,0.00,,,0.01,Wunderground v.1.15,2013-03-27 19:50:00,
2013-03-27 15:55:00,49.2,22.0,30.18,WNW,292,4.0,9.0,34,0.00,,,0.01,Wunderground v.1.15,2013-03-27 19:55:00,
2013-03-27 16:00:00,48.7,22.9,30.18,West,266,4.0,4.0,36,0.00,,,0.01,Wunderground v.1.15,2013-03-27 20:00:00,
2013-03-27 16:05:00,48.8,23.6,30.18,WSW,251,3.0,4.0,37,0.00,,,0.01,Wunderground v.1.15,2013-03-27 20:05:00,
2013-03-27 16:10:00,49.2,23.4,30.18,NW,310,3.0,3.0,36,0.00,,,0.01,Wunderground v.1.15,2013-03-27 20:10:00,
2013-03-27 16:15:00,49.2,23.4,30.18,West,277,4.0,5.0,36,0.00,,,0.01,Wunderground v.1.15,2013-03-27 20:15:00,
2013-03-27 16:20:00,49.0,23.2,30.17,WSW,256,3.0,3.0,36,0.00,,,0.01,Wunderground v.1.15,2013-03-27 20:20:00,
2013-03-27 16:25:00,49.0,22.5,30.17,WNW,290,3.0,7.0,35,0.00,,,0.01,Wunderground v.1.15,2013-03-27 20:25:00,
2013-03-27 16:30:00,48.9,23.1,30.17,WNW,297,3.0,3.0,36,0.00,,,0.01,Wunderground v.1.15,2013-03-27 20:30:00,
2013-03-27 16:35:00,48.7,22.2,30.17,NW,305,4.0,4.0,35,0.00,,,0.01,Wunderground v.1.15,2013-03-27 20:35:00,
2013-03-27 16:40:00,48.9,23.7,30.17,South,188,3.0,3.0,37,0.00,,,0.01,Wunderground v.1.15,2013-03-27 20:40:00,
2013-03-27 16:45:00,49.4,23.5,30.17,SE,139,2.0,7.0,36,0.00,,,0.01,Wunderground v.1.15,2013-03-27 20:45:00,
2013-03-27 16:50:00,49.7,23.8,30.17,NW,310,2.0,2.0,36,0.00,,,0.01,Wunderground v.1.15,2013-03-27 20:50:00,
2013-03-27 16:55:00,49.6,23.7,30.17,WSW,238,3.0,4.0,36,0.00,,,0.01,Wunderground v.1.15,2013-03-27 20:55:00,
2013-03-27 17:00:00,49.4,23.5,30.17,WNW,296,3.0,3.0,36,0.00,,,0.01,Wunderground v.1.15,2013-03-27 21:00:00,
2013-03-27 17:05:00,49.6,23.7,30.17,WNW,287,2.0,4.0,36,0.00,,,0.01,Wunderground v.1.15,2013-03-27 21:05:00,
2013-03-27 17:10:00,49.2,22.7,30.18,WNW,298,3.0,3.0,35,0.00,,,0.01,Wunderground v.1.15,2013-03-27 21:10:00,
2013-03-27 17:15:00,49.0,22.5,30.17,WNW,292,4.0,4.0,35,0.00,,,0.01,Wunderground v.1.15,2013-03-27 21:15:00,
2013-03-27 17:20:00,48.8,23.0,30.18,West,264,2.0,2.0,36,0.00,,,0.01,Wunderground v.1.15,2013-03-27 21:20:00,
2013-03-27 17:25:00,48.4,23.3,30.18,WNW,288,2.0,3.0,37,0.00,,,0.01,Wunderground v.1.15,2013-03-27 21:25:00,
2013-03-27 17:30:00,48.3,23.2,30.18,West,272,2.0,2.0,37,0.00,,,0.01,Wunderground v.1.15,2013-03-27 21:30:00,
2013-03-27 17:35:00,48.5,23.4,30.18,WSW,247,2.0,7.0,37,0.00,,,0.01,Wunderground v.1.15,2013-03-27 21:35:00,
2013-03-27 17:40:00,48.5,22.7,30.18,NW,310,2.0,2.0,36,0.00,,,0.01,Wunderground v.1.15,2013-03-27 21:40:00,
2013-03-27 17:45:00,48.7,23.6,30.18,West,265,2.0,2.0,37,0.00,,,0.01,Wunderground v.1.15,2013-03-27 21:45:00,
2013-03-27 17:50:00,48.9,23.1,30.18,WSW,239,1.0,3.0,36,0.00,,,0.01,Wunderground v.1.15,2013-03-27 21:50:00,
2013-03-27 17:55:00,48.3,21.9,30.18,NW,306,2.0,3.0,35,0.00,,,0.01,Wunderground v.1.15,2013-03-27 21:55:00,
2013-03-27 18:00:00,47.9,22.2,30.18,WNW,301,2.0,4.0,36,0.00,,,0.01,Wunderground v.1.15,2013-03-27 22:00:00,
2013-03-27 18:10:00,47.3,22.9,30.19,West,273,2.0,2.0,38,0.00,,,0.01,Wunderground v.1.15,2013-03-27 22:10:00,
2013-03-27 18:15:00,46.8,21.9,30.19,West,267,2.0,2.0,37,0.00,,,0.01,Wunderground v.1.15,2013-03-27 22:15:00,
2013-03-27 18:20:00,46.3,21.4,30.19,WSW,237,3.0,3.0,37,0.00,,,0.01,Wunderground v.1.15,2013-03-27 22:20:00,
2013-03-27 18:30:00,45.9,22.9,30.19,WNW,292,2.0,3.0,40,0.00,,,0.01,Wunderground v.1.15,2013-03-27 22:30:00,
2013-03-27 18:40:00,45.3,22.4,30.20,WNW,285,2.0,2.0,40,0.00,,,0.01,Wunderground v.1.15,2013-03-27 22:40:00,
2013-03-27 18:45:00,45.2,21.7,30.21,WNW,294,2.0,2.0,39,0.00,,,0.01,Wunderground v.1.15,2013-03-27 22:45:00,
2013-03-27 18:50:00,45.2,22.9,30.21,South,180,2.0,2.0,41,0.00,,,0.01,Wunderground v.1.15,2013-03-27 22:50:00,
2013-03-27 18:55:00,45.1,22.2,30.20,WNW,292,2.0,3.0,40,0.00,,,0.01,Wunderground v.1.15,2013-03-27 22:55:00,
2013-03-27 19:00:00,45.0,22.7,30.20,West,280,2.0,3.0,41,0.00,,,0.01,Wunderground v.1.15,2013-03-27 23:00:00,
2013-03-27 19:05:00,44.9,23.2,30.21,West,269,1.0,3.0,42,0.00,,,0.01,Wunderground v.1.15,2013-03-27 23:05:00,
2013-03-27 19:10:00,44.7,22.4,30.21,West,277,1.0,1.0,41,0.00,,,0.01,Wunderground v.1.15,2013-03-27 23:10:00,
2013-03-27 19:20:00,44.3,22.1,30.21,WNW,298,0.0,2.0,41,0.00,,,0.01,Wunderground v.1.15,2013-03-27 23:20:00,
2013-03-27 19:25:00,44.1,22.4,30.22,West,265,1.0,2.0,42,0.00,,,0.01,Wunderground v.1.15,2013-03-27 23:25:00,
2013-03-27 19:30:00,43.9,22.3,30.22,West,271,1.0,1.0,42,0.00,,,0.01,Wunderground v.1.15,2013-03-27 23:30:00,
2013-03-27 19:35:00,43.8,22.2,30.22,SW,229,1.0,1.0,42,0.00,,,0.01,Wunderground v.1.15,2013-03-27 23:35:00,
2013-03-27 19:40:00,43.5,21.9,30.22,WNW,288,0.0,0.0,42,0.00,,,0.01,Wunderground v.1.15,2013-03-27 23:40:00,
2013-03-27 19:45:00,43.3,22.3,30.23,SW,229,0.0,0.0,43,0.00,,,0.01,Wunderground v.1.15,2013-03-27 23:45:00,
2013-03-27 19:50:00,43.0,22.0,30.23,WNW,289,0.0,0.0,43,0.00,,,0.01,Wunderground v.1.15,2013-03-27 23:50:00,
2013-03-27 19:55:00,42.9,22.5,30.23,WNW,289,0.0,0.0,44,0.00,,,0.01,Wunderground v.1.15,2013-03-27 23:55:00,
2013-03-27 20:00:00,42.7,22.8,30.23,WNW,289,0.0,0.0,45,0.00,,,0.01,Wunderground v.1.15,2013-03-28 00:00:00,
2013-03-27 20:05:00,42.5,23.2,30.23,WNW,289,0.0,0.0,46,0.00,,,0.01,Wunderground v.1.15,2013-03-28 00:05:00,
2013-03-27 20:10:00,42.2,23.4,30.23,WNW,289,0.0,0.0,47,0.00,,,0.01,Wunderground v.1.15,2013-03-28 00:10:00,
2013-03-27 20:15:00,41.9,23.1,30.23,WNW,289,0.0,0.0,47,0.00,,,0.01,Wunderground v.1.15,2013-03-28 00:15:00,
2013-03-27 20:20:00,41.5,23.7,30.23,WNW,289,0.0,0.0,49,0.00,,,0.01,Wunderground v.1.15,2013-03-28 00:20:00,
2013-03-27 20:25:00,41.2,23.5,30.23,WNW,289,0.0,0.0,49,0.00,,,0.01,Wunderground v.1.15,2013-03-28 00:25:00,
2013-03-27 20:30:00,40.8,23.6,30.24,WNW,289,0.0,0.0,50,0.00,,,0.01,Wunderground v.1.15,2013-03-28 00:30:00,
2013-03-27 20:35:00,40.4,23.2,30.24,WNW,289,0.0,0.0,50,0.00,,,0.01,Wunderground v.1.15,2013-03-28 00:35:00,
2013-03-27 20:40:00,40.1,23.4,30.24,WNW,289,0.0,0.0,51,0.00,,,0.01,Wunderground v.1.15,2013-03-28 00:40:00,
2013-03-27 20:45:00,39.8,23.1,30.23,WNW,289,0.0,0.0,51,0.00,,,0.01,Wunderground v.1.15,2013-03-28 00:45:00,
2013-03-27 20:50:00,39.5,23.8,30.24,WNW,289,0.0,0.0,53,0.00,,,0.01,Wunderground v.1.15,2013-03-28 00:50:00,
2013-03-27 21:00:00,38.8,24.0,30.24,WNW,289,0.0,0.0,55,0.00,,,0.01,Wunderground v.1.15,2013-03-28 01:00:00,
2013-03-27 21:05:00,38.4,23.6,30.24,WNW,289,0.0,0.0,55,0.00,,,0.01,Wunderground v.1.15,2013-03-28 01:05:00,
2013-03-27 21:10:00,38.0,23.7,30.24,WNW,289,0.0,0.0,56,0.00,,,0.01,Wunderground v.1.15,2013-03-28 01:10:00,
2013-03-27 21:15:00,37.8,23.5,30.24,WNW,289,0.0,0.0,56,0.00,,,0.01,Wunderground v.1.15,2013-03-28 01:15:00,
2013-03-27 21:20:00,37.6,23.7,30.24,WNW,289,0.0,0.0,57,0.00,,,0.01,Wunderground v.1.15,2013-03-28 01:20:00,
2013-03-27 21:25:00,37.4,23.1,30.25,WNW,289,0.0,0.0,56,0.00,,,0.01,Wunderground v.1.15,2013-03-28 01:25:00,
2013-03-27 21:30:00,37.3,23.4,30.25,WNW,289,0.0,0.0,57,0.00,,,0.01,Wunderground v.1.15,2013-03-28 01:30:00,
2013-03-27 21:35:00,37.2,23.8,30.25,WNW,289,0.0,0.0,58,0.00,,,0.01,Wunderground v.1.15,2013-03-28 01:35:00,
2013-03-27 21:40:00,37.0,23.6,30.25,WNW,289,0.0,0.0,58,0.00,,,0.01,Wunderground v.1.15,2013-03-28 01:40:00,
2013-03-27 21:45:00,36.8,23.8,30.25,WNW,289,0.0,0.0,59,0.00,,,0.01,Wunderground v.1.15,2013-03-28 01:45:00,
2013-03-27 21:50:00,36.5,23.5,30.25,WNW,289,0.0,0.0,59,0.00,,,0.01,Wunderground v.1.15,2013-03-28 01:50:00,
2013-03-27 21:55:00,36.2,24.0,30.25,WNW,289,0.0,0.0,61,0.00,,,0.01,Wunderground v.1.15,2013-03-28 01:55:00,
2013-03-27 22:00:00,36.0,23.4,30.25,WNW,289,0.0,0.0,60,0.00,,,0.01,Wunderground v.1.15,2013-03-28 02:00:00,
2013-03-27 22:05:00,35.9,23.4,30.25,WNW,289,0.0,0.0,60,0.00,,,0.01,Wunderground v.1.15,2013-03-28 02:05:00,
2013-03-27 22:10:00,35.7,23.6,30.25,WNW,289,0.0,0.0,61,0.00,,,0.01,Wunderground v.1.15,2013-03-28 02:10:00,
2013-03-27 22:20:00,35.4,24.8,30.25,WNW,289,0.0,0.0,65,0.00,,,0.01,Wunderground v.1.15,2013-03-28 02:20:00,
2013-03-27 22:25:00,35.2,24.6,30.25,WNW,289,0.0,0.0,65,0.00,,,0.01,Wunderground v.1.15,2013-03-28 02:25:00,
2013-03-27 22:30:00,35.0,25.1,30.25,WNW,289,0.0,0.0,67,0.00,,,0.01,Wunderground v.1.15,2013-03-28 02:30:00,
2013-03-27 22:35:00,34.8,25.3,30.25,WNW,289,0.0,0.0,68,0.00,,,0.01,Wunderground v.1.15,2013-03-28 02:35:00,
2013-03-27 22:40:00,34.6,24.0,30.25,WNW,289,0.0,0.0,65,0.00,,,0.01,Wunderground v.1.15,2013-03-28 02:40:00,
2013-03-27 22:45:00,34.6,25.1,30.25,WNW,289,0.0,0.0,68,0.00,,,0.01,Wunderground v.1.15,2013-03-28 02:45:00,
2013-03-27 22:50:00,34.5,25.7,30.25,WNW,289,0.0,0.0,70,0.00,,,0.01,Wunderground v.1.15,2013-03-28 02:50:00,
2013-03-27 22:55:00,34.3,26.2,30.25,WNW,289,0.0,0.0,72,0.00,,,0.01,Wunderground v.1.15,2013-03-28 02:55:00,
2013-03-27 23:00:00,34.1,25.3,30.25,WNW,289,0.0,0.0,70,0.00,,,0.01,Wunderground v.1.15,2013-03-28 03:00:00,
2013-03-27 23:05:00,33.9,24.8,30.26,WNW,289,0.0,0.0,69,0.00,,,0.01,Wunderground v.1.15,2013-03-28 03:05:00,
2013-03-27 23:10:00,33.7,25.0,30.26,WNW,289,0.0,0.0,70,0.00,,,0.01,Wunderground v.1.15,2013-03-28 03:10:00,
2013-03-27 23:15:00,33.5,24.8,30.26,WNW,289,0.0,0.0,70,0.00,,,0.01,Wunderground v.1.15,2013-03-28 03:15:00,
2013-03-27 23:20:00,33.4,25.3,30.25,WNW,289,0.0,0.0,72,0.00,,,0.01,Wunderground v.1.15,2013-03-28 03:20:00,
2013-03-27 23:25:00,33.3,25.6,30.25,WNW,289,0.0,0.0,73,0.00,,,0.01,Wunderground v.1.15,2013-03-28 03:25:00,
2013-03-27 23:30:00,33.2,26.1,30.25,WNW,289,0.0,0.0,75,0.00,,,0.01,Wunderground v.1.15,2013-03-28 03:30:00,
2013-03-27 23:35:00,33.2,25.5,30.25,WNW,289,0.0,0.0,73,0.00,,,0.01,Wunderground v.1.15,2013-03-28 03:35:00,
2013-03-27 23:40:00,33.2,25.5,30.25,WNW,289,0.0,0.0,73,0.00,,,0.01,Wunderground v.1.15,2013-03-28 03:40:00,
2013-03-27 23:45:00,33.2,25.1,30.26,WNW,289,0.0,0.0,72,0.00,,,0.01,Wunderground v.1.15,2013-03-28 03:45:00,
2013-03-27 23:50:00,33.3,24.9,30.26,West,272,0.0,0.0,71,0.00,,,0.01,Wunderground v.1.15,2013-03-28 03:50:00,
2013-03-27 23:55:00,33.4,24.7,30.26,West,272,0.0,0.0,70,0.00,,,0.01,Wunderground v.1.15,2013-03-28 03:55:00,